Regional Weather Roundup
Issued by NWS

Home | Current Version | Previous Version | Text Only | Print | Product List | Glossary Off
Versions: 1 2 3 4 5 6 7 8 9 10 11 12 13 14 15 16 17 18 19 20 21 22 23 24 25 26 27 28 29 30 31 32 33 34 35 36 37 38 39 40 41 42 43 44 45 46 47 48 49 50

000
ASUS45 KBOI 280210
RWRID
WEATHER ROUNDUP FOR IDAHO
NATIONAL WEATHER SERVICE BOISE ID
800 PM MDT SUN JUL 27 2014

NOTE: "FAIR" INDICATES FEW OR NO CLOUDS BELOW 12000 FEET
WITH NO SIGNIFICANT WEATHER AND/OR OBSTRUCTIONS TO VISIBILITY

IDZ012-014-280300-
SOUTHWEST IDAHO


CITY           SKY/WX    TMP DP  RH WIND       PRES   REMARKS
BOISE          PTSUNNY   96  41  15 N6        29.98F HX  92
CALDWELL       PTSUNNY   93  52  24 W8        29.98S HX  90
MOUNTAIN HOME  PTSUNNY   99  26   7 N7        29.98S HX  93
$$

IDZ016-017-280300-
SOUTHCENTRAL IDAHO


CITY           SKY/WX    TMP DP  RH WIND       PRES   REMARKS
BURLEY         MOCLDY    87  43  21 N7        30.06S
JEROME         PTSUNNY   85  55  35 W6        30.08S
TWIN FALLS     MOCLDY    91  40  16 W8        30.08S
$$

IDZ019>023-280300-
SOUTHEAST IDAHO


CITY           SKY/WX    TMP DP  RH WIND       PRES   REMARKS
IDAHO FALLS    PTCLDY    92  35  13 NE3       30.16S
POCATELLO      CLEAR     93  29  10 E6        30.12S
REXBURG        PTCLDY    87  33  14 E3        30.17F
$$

IDZ006-010-011-018-031-032-280300-
CENTRAL IDAHO MOUNTAINS


CITY           SKY/WX    TMP DP  RH WIND       PRES   REMARKS
MCCALL         SUNNY     87  28  12 NW6       30.17F
HAILEY         PTSUNNY   81  48  32 S6        30.18F
STANLEY          N/A     86  21   9 NW3       30.27F
SALMON         SUNNY     88  41  19 NW6       30.05F
CHALLIS        SUNNY     84  33  16 NW5       30.15S
$$

IDZ002-004-006-007-026-280300-
NORTHERN IDAHO


CITY           SKY/WX    TMP DP  RH WIND       PRES   REMARKS
LEWISTON       MOSUNNY   97  37  12 N7        29.98S HX  92
LOWELL           N/A     79  53  40 N3        29.98R
COEUR D`ALENE  MOSUNNY   86  45  23 E7        30.08S
MULLAN PASS    PTSUNNY   70  33  25 CALM      30.35S
$$



USA.gov is the U.S. government's official web portal to all federal, state and local government web resources and services.